Погода в Святозере

Россия / Республика Карелия     61°33′23″N   33°36′47″E
темп.,
°C
ветер,
м/с
пор.,
м/с
влажн.,
%
обл.,
%
осадки,
мм/ч
давл.,
гПа
погр.,
м
5 марта, пт
пт500:00−11ссз249780 0.1 100383
03:00−12ссз239780 0.1 100483
06:00−12с129793 0.1 100523
09:00−12зсз129759 0.1 100661
12:00−7сз369098 0.1 1008567
15:00−6ссз467999 0.3 10101045
18:00−10ссз228972 0.1 101121
21:00−13сз129549 0.1 101321
6 марта, сб
сб600:00−13зсз129736 0.0 101420
03:00−13з229858 0.0 101422
06:00−15з129879 0.0 101320
09:00−13юз269770 0.0 1012166
12:00−7юз489287 0.0 1010496
15:00−6ююз5119094 0.1 1005788
18:00−6ююз71493100 0.7 9991010
21:00−5ююз81593100 2.7 9921056
7 марта, вс
вс700:00−3ююз61296100 3.5 987912
03:00−6з4992100 5.6 986417
06:00−10з3891100 0.2 986293
09:00−13сз248896 0.2 987108
12:00−8з12767 0.0 989414
15:00−7з238134 0.1 990762
18:00−9сз2391100 0.0 99283
21:00−9с31095100 0.3 995576
8 марта, пн
пн800:00−11ссв61390100 0.3 997642
03:00−12ссв61490100 0.4 1001772
06:00−17с61392100 0.1 1003508
09:00−19ссв61392100 0.1 1007458
12:00−16с5119195 0.0 1009447
15:00−14с598993 0.0 1011511
18:00−16с499393 0.0 1013439
21:00−20ссв399672 0.0 1015266
9 марта, вт
вт900:00−24ссв23981 0.0 101660
03:00−25ссв23981 0.0 101742
06:00−26св22970 0.0 101724
09:00−24св12950 0.0 101879
12:00−18св24867 0.0 1018344
15:00−16св24877 0.0 1019409
18:00−19св22930 0.0 101931
21:00−24всв22860 0.0 102120